Content
SEND FEEDBACK

Daily
Averages
Monthly
Summary
United States of America

HAZELWOOD, MISSOURI


Home > North America > United States > Missouri
Elevation: 174 meters     Latitude: 38 45N     Longitude: 090 22W

WEATHER
 
SELECT A DAY
Number of Records: 199,721;   Date Range: 1/1/95 - 10/23/14
 
SHARE

PRINT THIS DATA

[ ← Previous Day ]
WEATHER ALMANAC - 24 JANUARY, 2013
[ Next Day → ]
[ °F ]   °C
Weather ElementAverageHighLow
Temperature-5.4 °C-2.8 °C (11:54 pm)-9.4 °C (6:54 am)
Dewpoint-14.8 °C-12.2 °C (10:54 pm) (7:00 pm)
Humidity49.2 %65 % (7:54 am)38 % (11:54 am)
Barometer1032.2 hPa1037.3 hPa (10:54 am)1025.1 hPa (11:54 pm)
Wind Speed17.2 km/h24.1 km/h (3:54 pm)
Wind Gust31.5 km/h (2:54 am)
Weather ElementAverage
Visibility16.1 km
Wind DirectionE (92.6 °)

Weather ElementTotal
Precipitation---
Heating Degree Days24.4 (Base 18.3)
Averaged from 23 records on 24 January, 2013
WEATHER CONDITIONS BREAKOUT
WIND DIRECTION BREAKOUT
WEATHER BY HOUR - 24 JANUARY, 2013
[ °F ]   °C
Local TimeTemperatureDewpointHumidityBarometerVisibilityWind DirectionWind SpeedGust SpeedPrecipitationEventsConditions
1:54 AM-4.4 °C-12.8 °C53 %1031.2 hPa16.1 kmNorth (360°)20.4 km/hClear
2:54 AM-6.1 °C-15 °C50 %1032.5 hPa16.1 kmNorth (10°)22.2 km/h31.5 km/hClear
3:54 AM-7.2 °C-15.6 °C52 %1033.2 hPa16.1 kmNorth (10°)18.5 km/hClear
4:54 AM-7.8 °C-15.6 °C54 %1034.2 hPa16.1 kmNorth (10°)14.8 km/h29.6 km/hClear
5:54 AM-8.9 °C-15.6 °C59 %1035.2 hPa16.1 kmNNE (20°)16.7 km/hClear
6:54 AM-9.4 °C-15 °C64 %1035.6 hPa16.1 kmNE (50°)16.7 km/hClear
7:54 AM-8.9 °C-14.4 °C65 %1035.9 hPa16.1 kmNE (40°)18.5 km/hOvercast
8:54 AM-8.3 °C-13.9 °C65 %1036.2 hPa16.1 kmENE (60°)20.4 km/hOvercast
9:54 AM-7.2 °C-17.2 °C46 %1036.9 hPa16.1 kmENE (70°)22.2 km/hClear
10:54 AM-6.1 °C-17.8 °C40 %1037.3 hPa16.1 kmEast (80°)16.7 km/hClear
11:54 AM-5.6 °C-17.8 °C38 %1035.6 hPa16.1 kmESE (110°)18.5 km/hOvercast
12:54 PM-5 °C-17.2 °C39 %1034.2 hPa16.1 kmEast (100°)14.8 km/hOvercast
1:54 PM-4.4 °C-16.1 °C40 %1033.2 hPa16.1 kmESE (120°)14.8 km/hOvercast
2:54 PM-3.9 °C-15.6 °C41 %1032.8 hPa16.1 kmSE (130°)11.1 km/hOvercast
3:54 PM-3.9 °C-14.4 °C45 %1030.8 hPa16.1 kmEast (90°)24.1 km/h29.6 km/hOvercast
4:54 PM-3.9 °C-13.9 °C46 %1030.5 hPa16.1 kmEast (100°)16.7 km/hOvercast
5:54 PM-3.9 °C-13.9 °C46 %1030.5 hPa16.1 kmEast (90°)14.8 km/hClear
6:54 PM-3.3 °C-14.4 °C43 %1029.8 hPa16.1 kmESE (110°)16.7 km/h27.8 km/hOvercast
7:54 PM-3.3 °C-13.3 °C47 %1029.5 hPa16.1 kmESE (110°)20.4 km/h31.5 km/hOvercast
8:54 PM-3.3 °C-12.8 °C49 %1028.1 hPa16.1 kmESE (110°)16.7 km/h31.5 km/hOvercast
9:54 PM-3.3 °C-12.8 °C49 %1027.4 hPa16.1 kmSE (130°)16.7 km/hOvercast
10:54 PM-3.3 °C-12.2 °C51 %1026.1 hPa16.1 kmESE (120°)9.3 km/hOvercast
11:54 PM-2.8 °C-12.2 °C49 %1025.1 hPa16.1 kmEast (100°)13 km/hOvercast
Hourly data recorded from KSUS, located 0 kilometers away from Hazelwood, Missouri







STORIES FROM OUR PARTNERS